STARLINK-30311 (57637 NORAD) Tracking and Keplerian Element Data

This shows tracking and keplerian element data for the satellite.

Feedback or suggestion? Click here.




ElementValue
Catalog57637
NameSTARLINK-30311
Epoch Orbit2373
Epoch Day12.41871538
Epoch Year2024
RAAN52.6258
Inclination43.0032
Eccentricity7.76E-05
Argument of Perigee255.5094
Mean Anonmoly104.5662
Mean Motion15.02538354
Decay Rate8.57E-06
L11 57637U 23122F 24012.41871538 .00000857 00000+0 78485-4 0 9999
L22 57637 43.0032 52.6258 0000776 255.5094 104.5662 15.02538354 23735



Live tracking and technical data element details for STARLINK-30311 (NORAD 57637). STARLINK-30311 can be tracked NOW for your location showing map with azimuth and elevation plus other details from your city location.







IsCatalogInMostPopularTable: catalog: 57637, numindb: 27
Update: records affected: 1



GetName: 57637 STARLINK-30311

Hit Count: updated at: Thu, 29 Feb 2024 13:02:18 GMT